If you wish to contribute or participate in the discussions about articles you are invited to join SKYbrary as a registered user

 Actions

Argyle Airport

From SKYbrary Wiki

YARG
Airport
ICAO: YARG – IATA: GYL
Summary
Name Argyle Airport
Region Asia and Pacific
Territory Australia AU.gif
Location Argyle, Western Australia
Serving Argyle
Elevation 159.106 m
522 ft
522 ft159.106 m
Type small airport
Coordinates -16° 38' 12.84", 128° 27' 3.6"
Runways
Designator Length Width Surface ROPS
1/19 2300 m7,545.932 ft 30 m98.425 ft ASP /


METAR
Observation YARG 191400Z AUTO 25003KT 9999 // NCD 19/M02 Q1019
Station Argyle Airport
Date/Time 19 June 2018 14:00:00
Wind direction 250°
Wind speed 03 kts
Lowest cloud amount no clouds detected
Temperature 19°C
Dew point
Humidity 24%
QNH 1019 hPa
Weather condition n/a